[[{"header":{"parameterUnit":"m.s-1","parameterCategory":1,"la1":30.2991,"la2":30.254,"lo1":-89.0895,"lo2":-89.0444,"dy":0.0017,"dx":0.0017,"nx":28,"ny":28,"refTime":"2024-06-11T21:00:00:Z","depth":0,"parameterNumber":2,"parameterNumberName":"U-component_of_WINDS"},"data":[0,0,0,0,0,0,0,0,0,0,0,0,0,0,0,0,0,0,0,0,0,0,0,0,0,0,0,0,0,0,0,0,0,0,0,0,0,0,0,0,0,0,0,0,0,0,0,0,0,0,0,0,0,0,0,0,0,0,-1.7079,-1.7079,0,-1.7044,-1.7044,-1.7043,-1.6954,-1.6952,-1.6951,-1.6949,-1.6916,-1.6917,-1.6917,0,0,0,0,0,0,0,0,0,0,0,0,0,-1.7072,-1.7073,-1.7079,-1.7079,-1.7078,-1.7044,-1.7044,-1.7043,-1.6955,-1.6952,-1.695,-1.6948,-1.6915,-1.6916,-1.6918,0,0,0,0,0,0,0,0,0,0,0,0,0,-1.706,-1.7073,-1.7079,-1.703,-1.7025,-1.7044,-1.7044,-1.7043,-1.6955,-1.6952,-1.6949,-1.6947,-1.6915,-1.6916,-1.6918,-1.6983,0,0,-1.6922,-1.6922,0,0,0,0,0,0,0,0,-1.7061,-1.706,-1.7038,-1.7033,-1.7028,-1.7,-1.7029,-1.7023,-1.6956,-1.6982,-1.6949,-1.6945,-1.6946,-1.6945,-1.6945,-1.6981,-1.698,-1.6922,-1.6923,-1.6923,-1.6924,0,0,0,0,0,0,0,-1.7062,-1.7061,-1.7065,-1.7037,-1.7032,-1.701,-1.7006,-1.7027,-1.6981,-1.6979,-1.6973,-1.697,-1.6943,-1.6944,-1.6943,-1.6979,-1.6922,-1.6923,-1.6924,-1.6924,-1.7067,-1.707,0,0,0,0,0,0,-1.7069,-1.7063,-1.7066,-1.7064,-1.7038,-1.7013,-1.7007,-1.7012,-1.698,-1.6972,-1.6972,-1.6966,-1.6943,-1.6942,-1.6942,-1.7016,-1.6923,-1.6924,-1.6925,-1.7064,-1.7068,-1.7071,0,0,0,0,0,0,-1.707,-1.7071,-1.7068,-1.7062,-1.706,-1.7016,-1.7022,-1.7013,-1.7013,-1.6975,-1.6966,-1.6981,-1.6941,-1.694,-1.6973,-1.7014,-1.6925,-1.6926,-1.7061,-1.7066,-1.707,-1.7165,0,0,0,0,0,0,-1.707,-1.7071,-1.7095,-1.7063,-1.706,-1.7099,-1.7025,-1.7014,-1.7016,-1.7007,-1.6981,-1.6974,-1.6938,-1.6972,-1.6974,-1.7014,-1.6927,-1.7057,-1.7063,-1.7068,-1.7158,-1.7173,-1.7185,0,0,0,0,0,-1.707,-1.7124,-1.7097,-1.7097,-1.7089,-1.7102,-1.71,-1.7058,-1.7019,-1.7043,-1.7018,-1.6974,-1.7009,-1.6976,-1.6978,-1.7019,-1.7054,-1.7061,-1.7068,-1.7153,-1.717,-1.7184,0,0,0,0,0,0,-1.7163,-1.7119,-1.7088,-1.7133,-1.7122,-1.7087,-1.7116,-1.7077,-1.7078,-1.707,-1.7017,-1.7012,-1.7053,-1.7039,-1.7003,-1.708,-1.7024,-1.7032,-1.7088,-1.7104,-1.7117,-1.712,-1.6928,0,0,0,0,0,-1.7188,-1.7202,-1.7163,-1.7206,-1.7202,-1.716,-1.7164,-1.7132,-1.7118,-1.7114,-1.7091,-1.7081,-1.7089,-1.7095,-1.7101,-1.7156,-1.7149,-1.7185,-1.7198,-1.7209,-1.7217,-1.7245,-1.7261,-1.7094,-1.7094,-1.7093,0,0,-1.7242,-1.7219,-1.7231,-1.7224,-1.7212,-1.7228,-1.7157,-1.7176,-1.7188,-1.7117,-1.7147,-1.713,-1.7114,-1.7159,-1.7177,-1.7149,-1.7261,-1.7218,-1.7227,-1.7228,-1.7254,-1.727,-1.7284,-1.7098,-1.7097,-1.7097,0,0,-1.7347,-1.7331,-1.7366,-1.7355,-1.7336,-1.7307,-1.7316,-1.7287,-1.7272,-1.7301,-1.7248,-1.7262,-1.7277,-1.7268,-1.7266,-1.7368,-1.7328,-1.7371,-1.744,-1.7469,-1.7482,-1.7494,-1.7531,-1.7545,-1.7378,-1.7379,-1.7379,0,-1.7417,-1.7437,-1.7389,-1.7412,-1.7411,-1.7346,-1.7381,-1.7373,-1.7358,-1.7359,-1.7326,-1.7344,-1.7329,-1.7371,-1.7396,-1.7396,-1.7405,-1.7374,-1.7484,-1.7495,-1.7505,-1.754,-1.7554,-1.7384,-1.7384,-1.7383,-1.7382,0,-1.7524,-1.7539,-1.7569,-1.7555,-1.7557,-1.7586,-1.7543,-1.7551,-1.7519,-1.7495,-1.7525,-1.7505,-1.7505,-1.7512,-1.7481,-1.755,-1.7533,-1.7493,-1.7436,-1.7527,-1.7559,-1.7572,-1.7392,-1.739,-1.7388,-1.7387,0,0,-1.7688,-1.7646,-1.7658,-1.7651,-1.7625,-1.7637,-1.7663,-1.7662,-1.7671,-1.7662,-1.7684,-1.7698,-1.7661,-1.7658,-1.7626,-1.7651,-1.7734,-1.7607,-1.7606,-1.7633,-1.7809,-1.784,-1.7857,-1.7707,-1.7709,-1.7711,-1.7811,0,-1.7788,-1.783,-1.7787,-1.7838,-1.7852,-1.779,-1.7813,-1.7801,-1.7778,-1.7788,-1.7763,-1.7774,-1.7724,-1.7722,-1.7744,-1.7719,-1.7769,-1.7711,-1.7728,-1.7729,-1.7735,-1.7873,-1.7906,-1.8001,-1.7823,-1.7825,-1.7827,0,-1.7911,-1.7907,-1.7959,-1.793,-1.7934,-1.7956,-1.7952,-1.7961,-1.7946,-1.7928,-1.7925,-1.7885,-1.791,-1.7853,-1.7887,-1.7849,-1.7853,-1.7842,-1.7845,-1.7846,-1.7784,-1.7879,-1.8031,-1.8046,-1.7846,-1.7844,-1.7843,0,-1.8027,-1.8035,-1.8067,-1.8063,-1.8029,-1.8046,-1.8033,-1.8015,-1.8017,-1.8014,-1.8015,-1.8015,-1.8016,-1.8017,-1.7979,-1.7941,-1.8018,-1.7959,-1.8005,-1.8006,-1.8025,-1.8025,-1.8181,-1.8026,-1.8026,-1.8026,-1.8025,0,-1.8144,-1.8178,-1.8118,-1.8139,-1.8176,-1.8126,-1.8165,-1.8146,-1.813,-1.8146,-1.8093,-1.8109,-1.8056,-1.8068,-1.8038,-1.8071,-1.8072,-1.8059,-1.805,-1.8064,-1.8066,-1.8067,-1.806,-1.8029,-1.8029,-1.8028,-1.8027,0,-1.828,-1.8241,-1.8273,-1.8238,-1.823,-1.8259,-1.823,-1.8248,-1.8222,-1.8243,-1.8245,-1.8204,-1.8214,-1.8176,-1.818,-1.816,-1.8209,-1.8189,-1.8214,-1.8209,-1.8258,-1.8255,-1.8421,-1.8441,-1.8273,-1.8275,-1.8276,0,-1.8358,-1.8383,-1.8351,-1.8357,-1.8347,-1.8358,-1.836,-1.8312,-1.8316,-1.8301,-1.8321,-1.8326,-1.8328,-1.8348,-1.8319,-1.8322,-1.8303,-1.8361,-1.8303,-1.8316,-1.8305,-1.8305,-1.8308,-1.8374,-1.8376,-1.8378,-1.8379,0,-1.8501,-1.848,-1.8484,-1.8482,-1.8485,-1.8481,-1.8474,-1.8483,-1.8431,-1.8439,-1.8448,-1.845,-1.8453,-1.846,-1.8457,-1.8444,-1.8404,-1.8397,-1.8408,-1.8423,-1.8437,-1.8431,-1.8249,-1.8394,-1.8392,-1.8391,-1.8391,-1.839,-1.8611,-1.863,-1.8611,-1.8617,-1.8606,-1.8601,-1.8616,-1.8591,-1.8597,-1.8596,-1.8567,-1.8582,-1.8567,-1.8558,-1.855,-1.8562,-1.8535,-1.855,-1.8555,-1.856,-1.8569,-1.8434,-1.8561,-1.856,-1.856,-1.8559,-1.8559,0,-1.8752,-1.8736,-1.8742,-1.8733,-1.8738,-1.8698,-1.8687,-1.8695,-1.8709,-1.8697,-1.87,-1.8711,-1.8717,-1.8688,-1.8691,-1.8706,-1.8688,-1.8708,-1.8708,-1.8706,-1.8592,-1.8583,-1.8723,-1.8723,-1.8723,-1.8723,-1.8723,-1.8723,-1.8826,-1.8857,-1.8834,-1.8859,-1.8843,-1.8857,-1.8855,-1.8849,-1.8839,-1.8854,-1.8858,-1.8839,-1.8821,-1.8821,-1.8826,-1.8817,-1.8821,-1.8849,-1.8835,-1.8729,-1.8714,-1.8698,-1.8689,-1.885,-1.885,-1.8947,-1.8948,-1.8948]},{"header":{"parameterUnit":"m.s-1","parameterCategory":1,"la1":30.2991,"la2":30.254,"lo1":-89.0895,"lo2":-89.0444,"dy":0.0017,"dx":0.0017,"nx":28,"ny":28,"refTime":"2024-06-11T21:00:00:Z","depth":0,"parameterNumber":3,"parameterNumberName":"V-component_of_WINDS"},"data":[0,0,0,0,0,0,0,0,0,0,0,0,0,0,0,0,0,0,0,0,0,0,0,0,0,0,0,0,0,0,0,0,0,0,0,0,0,0,0,0,0,0,0,0,0,0,0,0,0,0,0,0,0,0,0,0,0,0,-1.3046,-1.3046,0,-1.3074,-1.3074,-1.3074,-1.3064,-1.3063,-1.3063,-1.3062,-1.309,-1.3091,-1.3093,0,0,0,0,0,0,0,0,0,0,0,0,0,-1.2984,-1.2985,-1.3046,-1.3046,-1.3047,-1.3074,-1.3074,-1.3074,-1.3064,-1.3063,-1.3062,-1.3062,-1.309,-1.3091,-1.3093,0,0,0,0,0,0,0,0,0,0,0,0,0,-1.3011,-1.2985,-1.3046,-1.3045,-1.3045,-1.3074,-1.3074,-1.3074,-1.3064,-1.3063,-1.3062,-1.3061,-1.3089,-1.3091,-1.3093,-1.3124,0,0,-1.3099,-1.31,0,0,0,0,0,0,0,0,-1.3009,-1.3013,-1.3044,-1.3045,-1.3045,-1.3064,-1.3062,-1.3091,-1.3064,-1.3057,-1.3062,-1.3061,-1.3082,-1.3085,-1.3092,-1.3126,-1.3127,-1.3099,-1.31,-1.3101,-1.3102,0,0,0,0,0,0,0,-1.3008,-1.3012,-1.3057,-1.3045,-1.3045,-1.3043,-1.3046,-1.3068,-1.3074,-1.3057,-1.3057,-1.306,-1.3082,-1.309,-1.3093,-1.3127,-1.3099,-1.3101,-1.3102,-1.3103,-1.319,-1.3191,0,0,0,0,0,0,-1.3006,-1.301,-1.3056,-1.3058,-1.3025,-1.3045,-1.3048,-1.3059,-1.3074,-1.3076,-1.3061,-1.306,-1.3087,-1.309,-1.3094,-1.3133,-1.3101,-1.3103,-1.3104,-1.3189,-1.319,-1.3191,0,0,0,0,0,0,-1.3004,-1.301,-1.3055,-1.3034,-1.3039,-1.3047,-1.3059,-1.306,-1.3068,-1.3077,-1.3078,-1.3068,-1.3087,-1.3091,-1.3117,-1.3134,-1.3104,-1.3106,-1.3187,-1.3189,-1.3191,-1.3211,0,0,0,0,0,0,-1.3003,-1.3009,-1.3021,-1.3034,-1.3041,-1.3078,-1.306,-1.3061,-1.3072,-1.307,-1.3084,-1.3085,-1.3086,-1.3114,-1.3119,-1.3136,-1.3107,-1.3186,-1.3188,-1.319,-1.3209,-1.3214,-1.3217,0,0,0,0,0,-1.3,-1.3025,-1.3022,-1.3028,-1.3056,-1.3079,-1.3083,-1.3084,-1.3073,-1.3085,-1.3091,-1.3085,-1.3131,-1.3117,-1.3123,-1.314,-1.3185,-1.3188,-1.319,-1.3208,-1.3213,-1.3217,0,0,0,0,0,0,-1.3014,-1.3027,-1.3023,-1.3054,-1.3065,-1.3077,-1.3093,-1.3089,-1.3104,-1.3102,-1.3102,-1.3105,-1.3133,-1.3139,-1.3123,-1.3172,-1.3156,-1.316,-1.3168,-1.3173,-1.3177,-1.3176,-1.3109,0,0,0,0,0,-1.302,-1.3038,-1.3049,-1.3074,-1.3081,-1.3086,-1.3096,-1.3096,-1.3108,-1.3113,-1.312,-1.3132,-1.315,-1.3161,-1.3177,-1.3209,-1.3213,-1.3224,-1.3228,-1.3231,-1.3235,-1.3254,-1.326,-1.32,-1.3199,-1.3199,0,0,-1.3034,-1.3044,-1.3055,-1.3077,-1.3087,-1.3106,-1.309,-1.311,-1.3125,-1.3116,-1.3142,-1.3148,-1.3161,-1.3191,-1.3205,-1.3197,-1.3252,-1.3234,-1.3237,-1.3239,-1.3258,-1.3263,-1.3268,-1.3201,-1.3201,-1.3201,0,0,-1.3069,-1.3077,-1.3101,-1.311,-1.3125,-1.3128,-1.3134,-1.3146,-1.315,-1.3176,-1.3171,-1.3187,-1.3216,-1.3227,-1.3236,-1.3276,-1.3271,-1.3281,-1.3302,-1.3321,-1.3326,-1.333,-1.3346,-1.3352,-1.3284,-1.3284,-1.3284,0,-1.3085,-1.3113,-1.3113,-1.3135,-1.3145,-1.3138,-1.3162,-1.3171,-1.319,-1.3198,-1.3188,-1.3226,-1.3234,-1.3268,-1.3278,-1.3284,-1.3292,-1.328,-1.3325,-1.3329,-1.3333,-1.3349,-1.3355,-1.3285,-1.3285,-1.3285,-1.3285,0,-1.3133,-1.3152,-1.3169,-1.3189,-1.3201,-1.3223,-1.3227,-1.3239,-1.3238,-1.3242,-1.3269,-1.3279,-1.3298,-1.3305,-1.3304,-1.3339,-1.3334,-1.3325,-1.3309,-1.3341,-1.3355,-1.3361,-1.3287,-1.3287,-1.3286,-1.3286,0,0,-1.3178,-1.3197,-1.3204,-1.3213,-1.3229,-1.3244,-1.3266,-1.3285,-1.3297,-1.3309,-1.3329,-1.3354,-1.3347,-1.3357,-1.3356,-1.3372,-1.3406,-1.3361,-1.3362,-1.3371,-1.3447,-1.3456,-1.3463,-1.3402,-1.3403,-1.3403,-1.3447,0,-1.3217,-1.3257,-1.3257,-1.3294,-1.3314,-1.3307,-1.3326,-1.3338,-1.3343,-1.336,-1.3364,-1.3383,-1.337,-1.3377,-1.3392,-1.3398,-1.3421,-1.3395,-1.3421,-1.3422,-1.3421,-1.347,-1.3479,-1.3519,-1.3452,-1.3453,-1.3454,0,-1.3267,-1.3283,-1.3322,-1.3336,-1.3344,-1.3361,-1.338,-1.3395,-1.3409,-1.3411,-1.3423,-1.342,-1.3443,-1.3425,-1.3458,-1.344,-1.3451,-1.3455,-1.3457,-1.3461,-1.3442,-1.3478,-1.3532,-1.3539,-1.3463,-1.3462,-1.3461,0,-1.33,-1.333,-1.3358,-1.3366,-1.3382,-1.3395,-1.3402,-1.3414,-1.3426,-1.3441,-1.3449,-1.3467,-1.3477,-1.3491,-1.3493,-1.3479,-1.3527,-1.3508,-1.3531,-1.3531,-1.3543,-1.3542,-1.3602,-1.3545,-1.3545,-1.3545,-1.3545,0,-1.3344,-1.3369,-1.3373,-1.3391,-1.3418,-1.3418,-1.3446,-1.3452,-1.3463,-1.3482,-1.3476,-1.3493,-1.3494,-1.3512,-1.3514,-1.3542,-1.3546,-1.3549,-1.355,-1.3551,-1.3551,-1.356,-1.3558,-1.3547,-1.3546,-1.3546,-1.3546,0,-1.3386,-1.339,-1.342,-1.3433,-1.3437,-1.3457,-1.3468,-1.3485,-1.3488,-1.3512,-1.3518,-1.3524,-1.3545,-1.3548,-1.3572,-1.3574,-1.3608,-1.3604,-1.3604,-1.3605,-1.3628,-1.3626,-1.3697,-1.3707,-1.3641,-1.3642,-1.3642,0,-1.3415,-1.3434,-1.3449,-1.3462,-1.347,-1.349,-1.3502,-1.3503,-1.3516,-1.3533,-1.3548,-1.3568,-1.3585,-1.3619,-1.3626,-1.3645,-1.3643,-1.3667,-1.3646,-1.3648,-1.3647,-1.3647,-1.365,-1.3672,-1.3672,-1.3673,-1.3673,0,-1.3467,-1.3469,-1.3487,-1.3506,-1.3521,-1.3536,-1.355,-1.356,-1.3562,-1.3577,-1.3599,-1.3612,-1.3638,-1.3659,-1.3678,-1.3685,-1.3681,-1.3679,-1.3686,-1.3689,-1.3689,-1.3692,-1.3618,-1.3678,-1.3678,-1.3677,-1.3677,-1.3677,-1.3506,-1.3523,-1.3537,-1.3558,-1.3569,-1.3582,-1.3599,-1.3605,-1.3624,-1.3645,-1.3644,-1.3668,-1.3682,-1.3707,-1.3715,-1.3735,-1.3727,-1.3736,-1.3739,-1.3742,-1.3746,-1.3684,-1.3738,-1.3738,-1.3738,-1.3738,-1.3737,0,-1.356,-1.3569,-1.3588,-1.3608,-1.3625,-1.3618,-1.3633,-1.3647,-1.3669,-1.3682,-1.3699,-1.3725,-1.3746,-1.3754,-1.3774,-1.3788,-1.3787,-1.3794,-1.3794,-1.3797,-1.375,-1.3743,-1.3795,-1.3795,-1.3795,-1.3795,-1.3795,-1.3795,-1.359,-1.362,-1.3623,-1.3659,-1.3667,-1.3692,-1.3701,-1.3714,-1.3724,-1.3754,-1.3771,-1.3776,-1.3788,-1.3809,-1.3828,-1.383,-1.3838,-1.3847,-1.3849,-1.3805,-1.38,-1.3794,-1.3788,-1.3849,-1.3849,-1.3894,-1.3894,-1.3895]}]]